DESEL ETOU-EDFE

Flight info

Callsign DESEL
Flight time 0h 36m
Altitude 2500
Route VFR
Aircraft C172/L-V/N

Departure

Time 2026-04-26 10:40
Airport Wiesbaden Army Airfield (ETOU)

Arrival

Time 2026-04-26 11:16
Airport Frankfurt-Egelsbach Airport (EDFE)
Time Latitude Longitude Altitude Speed Heading
2026-04-26 10:30 50.04647 8.32773 461 ft 0 kts 304°
2026-04-26 10:33 50.04649 8.32770 461 ft 2 kts 303°
2026-04-26 10:33 50.04659 8.32725 460 ft 5 kts 261°
2026-04-26 10:34 50.04644 8.32666 460 ft 8 kts 248°
2026-04-26 10:34 50.04617 8.32569 460 ft 12 kts 243°
2026-04-26 10:34 50.04582 8.32425 460 ft 16 kts 246°
2026-04-26 10:34 50.04557 8.32229 460 ft 21 kts 265°
2026-04-26 10:35 50.04541 8.31994 459 ft 22 kts 262°
2026-04-26 10:35 50.04526 8.31812 459 ft 9 kts 264°
2026-04-26 10:35 50.04556 8.31764 459 ft 6 kts 327°
2026-04-26 10:35 50.04586 8.31732 459 ft 5 kts 324°
2026-04-26 10:36 50.04608 8.31706 459 ft 3 kts 324°
2026-04-26 10:36 50.04637 8.31673 459 ft 8 kts 322°
2026-04-26 10:36 50.04697 8.31607 458 ft 8 kts 326°
2026-04-26 10:36 50.04719 8.31585 458 ft 1 kts 324°
2026-04-26 10:37 50.04719 8.31584 458 ft 0 kts 325°
2026-04-26 10:39 50.04745 8.31556 457 ft 8 kts 332°
2026-04-26 10:39 50.04800 8.31584 456 ft 11 kts 74°
2026-04-26 10:39 50.04863 8.31915 458 ft 57 kts 72°
2026-04-26 10:39 50.04998 8.32645 586 ft 76 kts 77°
2026-04-26 10:40 50.05167 8.33508 750 ft 89 kts 72°
2026-04-26 10:40 50.05350 8.34439 1048 ft 93 kts 75°
2026-04-26 10:40 50.05617 8.35413 1225 ft 101 kts 67°
2026-04-26 10:40 50.06122 8.36245 1312 ft 115 kts 26°
2026-04-26 10:41 50.06931 8.36431 1309 ft 120 kts 354°
2026-04-26 10:41 50.07678 8.35937 1407 ft 117 kts 332°
2026-04-26 10:41 50.08352 8.35151 1263 ft 127 kts 306°
2026-04-26 10:41 50.08584 8.33833 1198 ft 128 kts 266°
2026-04-26 10:42 50.08358 8.32546 1189 ft 119 kts 249°
2026-04-26 10:42 50.08059 8.31361 1159 ft 116 kts 247°
2026-04-26 10:42 50.07774 8.30238 1173 ft 114 kts 247°
2026-04-26 10:42 50.07487 8.29081 1167 ft 114 kts 249°
2026-04-26 10:43 50.07196 8.27925 1126 ft 113 kts 237°
2026-04-26 10:43 50.06552 8.27286 1096 ft 113 kts 190°
2026-04-26 10:43 50.05823 8.27301 1044 ft 108 kts 167°
2026-04-26 10:43 50.05091 8.27591 951 ft 110 kts 160°
2026-04-26 10:44 50.04476 8.28216 850 ft 102 kts 128°
2026-04-26 10:44 50.04338 8.29256 751 ft 106 kts 81°
2026-04-26 10:44 50.04569 8.30379 556 ft 106 kts 74°
2026-04-26 10:44 50.04763 8.31409 458 ft 90 kts 73°
2026-04-26 10:45 50.04933 8.32270 473 ft 90 kts 72°
2026-04-26 10:45 50.05122 8.33233 617 ft 92 kts 73°
2026-04-26 10:45 50.05340 8.34133 855 ft 87 kts 69°
2026-04-26 10:45 50.05617 8.35016 989 ft 94 kts 69°
2026-04-26 10:46 50.06102 8.35587 1251 ft 93 kts
2026-04-26 10:46 50.06721 8.35170 1454 ft 102 kts 331°
2026-04-26 10:46 50.07378 8.34538 1381 ft 118 kts 328°
2026-04-26 10:46 50.08005 8.33717 1452 ft 113 kts 301°
2026-04-26 10:47 50.08100 8.32496 1325 ft 122 kts 262°
2026-04-26 10:47 50.07925 8.31153 1109 ft 132 kts 258°
2026-04-26 10:47 50.07793 8.29768 1092 ft 124 kts 262°
2026-04-26 10:47 50.07670 8.28490 1040 ft 118 kts 263°
2026-04-26 10:48 50.07437 8.27315 1035 ft 109 kts 225°
2026-04-26 10:48 50.06821 8.26778 1099 ft 99 kts 193°
2026-04-26 10:48 50.06141 8.26730 1024 ft 98 kts 178°
2026-04-26 10:48 50.05458 8.26757 881 ft 99 kts 169°
2026-04-26 10:49 50.04877 8.27231 747 ft 95 kts 124°
2026-04-26 10:49 50.04667 8.28194 727 ft 93 kts 107°
2026-04-26 10:49 50.04532 8.29193 682 ft 95 kts 99°
2026-04-26 10:49 50.04557 8.30247 585 ft 103 kts 79°
2026-04-26 10:50 50.04736 8.31266 468 ft 92 kts 74°
2026-04-26 10:50 50.04849 8.31860 457 ft 81 kts 73°
2026-04-26 10:50 50.05079 8.33038 516 ft 97 kts 73°
2026-04-26 10:50 50.05291 8.34061 732 ft 100 kts 74°
2026-04-26 10:51 50.05541 8.35052 1002 ft 99 kts 68°
2026-04-26 10:51 50.06261 8.36971 1384 ft 110 kts 39°
2026-04-26 10:51 50.07002 8.37290 1427 ft 114 kts 356°
2026-04-26 10:52 50.07755 8.36939 1497 ft 114 kts 334°
2026-04-26 10:52 50.08479 8.36372 1456 ft 117 kts 333°
2026-04-26 10:52 50.09207 8.35754 1417 ft 120 kts 331°
2026-04-26 10:52 50.09881 8.35015 1349 ft 116 kts 309°
2026-04-26 10:53 50.10089 8.34265 1305 ft 115 kts 278°
2026-04-26 10:53 50.09924 8.33063 1188 ft 116 kts 247°
2026-04-26 10:53 50.09626 8.31908 1172 ft 112 kts 249°
2026-04-26 10:54 50.09194 8.29643 1159 ft 110 kts 253°
2026-04-26 10:54 50.08967 8.28515 1175 ft 107 kts 249°
2026-04-26 10:54 50.08699 8.27459 1212 ft 103 kts 248°
2026-04-26 10:54 50.08452 8.26448 1283 ft 97 kts 248°
2026-04-26 10:55 50.08196 8.25513 1326 ft 96 kts 247°
2026-04-26 10:55 50.07930 8.24503 1268 ft 105 kts 248°
2026-04-26 10:55 50.07642 8.23479 1361 ft 101 kts 245°
2026-04-26 10:55 50.07333 8.22461 1344 ft 105 kts 244°
2026-04-26 10:56 50.07012 8.21442 1372 ft 106 kts 244°
2026-04-26 10:56 50.06640 8.20419 1321 ft 111 kts 240°
2026-04-26 10:56 50.06253 8.19387 1339 ft 109 kts 231°
2026-04-26 10:56 50.05596 8.18792 1249 ft 113 kts 191°
2026-04-26 10:57 50.04828 8.18965 1226 ft 112 kts 153°
2026-04-26 10:57 50.04270 8.19764 1258 ft 110 kts 122°
2026-04-26 10:57 50.03948 8.20835 1245 ft 110 kts 112°
2026-04-26 10:57 50.03713 8.21969 1193 ft 112 kts 106°
2026-04-26 10:58 50.03525 8.23174 1050 ft 116 kts 100°
2026-04-26 10:58 50.03516 8.24410 985 ft 115 kts 83°
2026-04-26 10:58 50.03723 8.25638 916 ft 120 kts 77°
2026-04-26 10:58 50.03909 8.26893 820 ft 117 kts 79°
2026-04-26 10:59 50.04142 8.28084 711 ft 112 kts 76°
2026-04-26 10:59 50.04348 8.29209 629 ft 105 kts 76°
2026-04-26 10:59 50.04545 8.30271 543 ft 103 kts 72°
2026-04-26 10:59 50.04734 8.31255 467 ft 86 kts 75°
2026-04-26 11:00 50.04887 8.32045 459 ft 66 kts 72°
2026-04-26 11:00 50.05051 8.32881 522 ft 92 kts 71°
2026-04-26 11:00 50.05266 8.33834 739 ft 97 kts 72°
2026-04-26 11:00 50.05673 8.34712 920 ft 107 kts 33°
2026-04-26 11:01 50.06410 8.34853 1180 ft 110 kts 348°
2026-04-26 11:01 50.07130 8.34391 1325 ft 116 kts 336°
2026-04-26 11:01 50.07593 8.33440 1425 ft 112 kts 278°
2026-04-26 11:01 50.07412 8.32272 1422 ft 117 kts 248°
2026-04-26 11:02 50.07081 8.31083 1281 ft 121 kts 249°
2026-04-26 11:02 50.06814 8.29836 1153 ft 122 kts 253°
2026-04-26 11:02 50.06581 8.28575 1025 ft 121 kts 246°
2026-04-26 11:02 50.06048 8.27622 884 ft 118 kts 205°
2026-04-26 11:03 50.05285 8.27554 830 ft 108 kts 164°
2026-04-26 11:03 50.04609 8.27920 841 ft 99 kts 155°
2026-04-26 11:03 50.04191 8.28719 843 ft 97 kts 101°
2026-04-26 11:03 50.04380 8.29762 731 ft 106 kts 65°
2026-04-26 11:04 50.04654 8.30838 585 ft 105 kts 73°
2026-04-26 11:04 50.04853 8.31838 466 ft 90 kts 75°
2026-04-26 11:04 50.05011 8.32675 461 ft 81 kts 72°
2026-04-26 11:04 50.05196 8.33572 647 ft 89 kts 74°
2026-04-26 11:05 50.05410 8.34495 900 ft 93 kts 71°
2026-04-26 11:05 50.05686 8.35439 1126 ft 98 kts 65°
2026-04-26 11:05 50.06026 8.36409 1305 ft 108 kts 59°
2026-04-26 11:05 50.06422 8.37450 1404 ft 116 kts 62°
2026-04-26 11:06 50.06790 8.38603 1375 ft 120 kts 66°
2026-04-26 11:06 50.07111 8.39818 1338 ft 122 kts 68°
2026-04-26 11:06 50.07453 8.41029 1286 ft 123 kts 66°
2026-04-26 11:06 50.07788 8.42249 1259 ft 122 kts 67°
2026-04-26 11:07 50.08118 8.43459 1241 ft 121 kts 69°
2026-04-26 11:07 50.08435 8.44687 1186 ft 122 kts 69°
2026-04-26 11:07 50.08766 8.45871 1253 ft 117 kts 63°
2026-04-26 11:07 50.09176 8.46965 1281 ft 117 kts 59°
2026-04-26 11:08 50.09595 8.48037 1366 ft 115 kts 60°
2026-04-26 11:08 50.09896 8.49166 1433 ft 113 kts 75°
2026-04-26 11:08 50.10072 8.50400 1321 ft 121 kts 77°
2026-04-26 11:08 50.10266 8.51731 1104 ft 128 kts 75°
2026-04-26 11:09 50.10496 8.53019 1103 ft 119 kts 73°
2026-04-26 11:09 50.10709 8.54250 1010 ft 118 kts 74°
2026-04-26 11:09 50.10878 8.55506 952 ft 117 kts 75°
2026-04-26 11:09 50.11084 8.56659 1089 ft 102 kts 68°
2026-04-26 11:10 50.11352 8.57596 1310 ft 94 kts 65°
2026-04-26 11:10 50.11578 8.58595 1438 ft 99 kts 72°
2026-04-26 11:10 50.11692 8.59679 1411 ft 107 kts 107°
2026-04-26 11:10 50.11051 8.60445 1128 ft 128 kts 154°
2026-04-26 11:11 50.10250 8.61013 1089 ft 123 kts 153°
2026-04-26 11:11 50.09455 8.61470 1157 ft 118 kts 163°
2026-04-26 11:11 50.08645 8.61673 1174 ft 119 kts 172°
2026-04-26 11:11 50.07861 8.61717 1401 ft 112 kts 181°
2026-04-26 11:12 50.07055 8.61634 1318 ft 119 kts 195°
2026-04-26 11:12 50.06257 8.61207 1253 ft 121 kts 202°
2026-04-26 11:12 50.05448 8.60766 1202 ft 122 kts 199°
2026-04-26 11:12 50.04623 8.60379 1052 ft 126 kts 195°
2026-04-26 11:13 50.03818 8.59963 1120 ft 110 kts 203°
2026-04-26 11:13 50.03135 8.59543 1110 ft 111 kts 207°
2026-04-26 11:13 50.02399 8.59107 1049 ft 113 kts 177°
2026-04-26 11:13 50.01605 8.59307 877 ft 117 kts 173°
2026-04-26 11:14 50.00822 8.59403 880 ft 109 kts 168°
2026-04-26 11:14 50.00097 8.59557 895 ft 104 kts 168°
2026-04-26 11:14 49.99401 8.59715 935 ft 96 kts 167°
2026-04-26 11:14 49.98732 8.59847 865 ft 103 kts 172°
2026-04-26 11:15 49.98053 8.60027 947 ft 97 kts 163°
2026-04-26 11:15 49.97366 8.60258 950 ft 107 kts 164°
2026-04-26 11:15 49.96607 8.60542 1058 ft 115 kts 165°
2026-04-26 11:15 49.95957 8.61189 1009 ft 113 kts 110°
2026-04-26 11:16 49.96003 8.62421 662 ft 109 kts 81°
2026-04-26 11:16 49.96053 8.63520 396 ft 94 kts 86°
2026-04-26 11:16 49.96091 8.64361 393 ft 59 kts 85°
2026-04-26 11:16 49.96114 8.64839 386 ft 38 kts 86°
2026-04-26 11:17 49.96145 8.64951 386 ft 5 kts 322°
2026-04-26 11:17 49.96172 8.64892 386 ft 11 kts 302°
2026-04-26 11:17 49.96195 8.64740 388 ft 16 kts 266°
2026-04-26 11:17 49.96185 8.64561 391 ft 17 kts 265°
2026-04-26 11:18 49.96175 8.64357 389 ft 19 kts 264°
2026-04-26 11:18 49.96177 8.64220 390 ft 6 kts 298°
2026-04-26 11:18 49.96215 8.64208 387 ft 0 kts 355°